Wind_Speed
4 5 5 5 6 6 7 7 7 7 8 10 10 10 10 10 11 11 11 11 11 10 10 10 11 10 10 9 9 9 9 9 9 9 9 9 9 9 9 9 10 10 10
5 6 6 6 6 7 8 8 8 8 9 9 9 9 9 10 9 10 11 11 10 10 10 10 10 10 9 9 9 9 9 9 9 9 9 9 9 9 9 10 10 9 10
6 6 7 6 7 7 7 7 8 8 9 8 8 9 9 9 9 11 11 10 10 10 10 9 9 9 9 9 8 8 8 8 8 8 8 9 9 9 9 9 9 9 9
6 6 6 6 7 7 7 7 6 8 8 8 8 8 8 8 9 10 10 10 10 9 9 9 8 8 8 8 7 7 7 7 7 7 8 8 9 9 9 8 8 8 8
6 6 6 6 7 7 6 6 6 7 8 8 7 8 8 8 8 9 8 8 9 9 9 8 7 7 7 7 7 6 6 6 7 7 7 7 8 9 8 8 7 7 7
7 6 6 6 7 7 6 6 7 7 8 8 8 7 7 8 8 8 8 9 9 9 8 8 7 7 7 6 6 5 5 5 6 6 6 7 7 7 7 7 7 6 6
7 7 6 6 6 6 6 7 7 8 8 8 8 7 7 7 7 8 8 8 8 8 7 7 7 6 6 5 5 4 5 5 5 5 5 5 6 6 6 6 6 6 6
8 7 7 7 6 6 7 7 6 7 8 8 7 6 6 6 7 7 7 7 7 6 6 6 6 5 5 4 3 3 4 4 4 4 4 5 5 5 5 5 5 5 5
9 8 7 7 7 7 7 7 6 7 7 8 7 6 6 6 7 7 7 6 6 6 5 5 5 4 4 3 3 3 3 4 4 4 4 4 5 5 4 4 4 4 3
9 8 8 8 7 7 7 6 6 6 6 7 7 6 6 6 6 6 6 6 6 5 5 4 4 3 3 3 2 2 3 3 4 4 4 3 4 5 5 4 4 3 3
10 9 9 8 8 7 7 6 6 6 7 7 7 7 7 6 6 6 6 6 5 5 4 4 3 3 3 2 2 2 2 3 3 4 4 3 3 4 4 4 4 3 2
13 11 9 9 9 8 7 7 6 6 6 7 7 7 6 6 6 6 5 5 5 5 4 3 3 3 2 2 2 2 1 2 2 4 4 3 3 3 4 4 4 3 3
14 13 12 10 9 8 7 7 6 6 7 6 6 6 6 6 6 5 5 5 4 4 3 3 3 3 3 2 1 1 1 2 2 3 3 3 4 4 4 4 4 4 4
14 14 13 11 10 8 7 7 7 7 7 7 6 6 5 5 5 6 5 4 4 3 3 3 3 3 3 3 2 2 2 3 3 3 4 4 4 4 4 4 5 5 6
15 14 13 12 11 9 8 7 7 7 6 6 6 5 5 5 4 5 5 5 4 4 3 3 3 3 3 3 2 2 2 3 3 3 4 4 5 5 5 5 6 6 6
15 14 13 12 11 11 10 8 7 7 7 6 6 5 4 4 4 4 4 4 4 4 4 3 3 3 4 3 3 3 2 3 4 4 4 5 5 5 5 6 6 6 6
15 14 13 12 11 11 10 9 8 8 7 6 5 4 4 3 3 3 3 3 4 4 4 4 3 3 4 3 3 3 3 4 4 5 5 6 5 5 6 6 7 6 6
13 13 13 12 12 11 11 10 9 8 7 5 4 4 4 4 4 3 2 2 3 4 4 4 4 3 4 4 4 3 4 4 5 5 6 6 6 6 6 7 7 7 6
12 12 12 12 12 11 11 10 9 9 7 6 5 4 3 3 3 2 2 1 2 3 3 3 4 4 4 4 4 4 4 5 5 5 6 7 7 7 7 7 7 7 7
10 10 10 10 10 10 10 10 9 8 7 6 5 4 3 2 2 2 1 0 1 2 3 4 4 4 5 5 5 5 5 5 6 6 6 7 7 7 7 8 8 8 8
8 8 8 9 9 9 9 9 8 7 7 6 6 6 4 3 2 2 1 1 1 2 3 4 4 5 5 6 6 6 6 6 6 7 6 7 8 8 8 9 9 9 9
6 6 6 7 8 8 8 8 8 7 6 5 5 4 4 3 3 2 2 2 2 2 2 3 4 4 5 6 6 7 7 7 8 8 8 8 8 9 9 9 10 10 10
4 4 4 5 6 6 6 6 6 6 5 5 5 4 3 2 2 2 2 2 3 3 3 3 3 4 6 6 7 8 8 9 8 9 9 9 9 9 9 9 10 11 11
4 4 3 4 5 5 5 5 5 5 5 4 4 4 4 3 2 2 3 3 4 4 5 5 5 5 6 7 8 9 9 9 9 9 9 9 9 10 10 10 11 12 12
6 6 5 5 5 5 5 4 4 5 5 5 5 5 4 4 4 4 5 5 5 6 6 7 7 7 7 8 8 8 9 9 9 9 9 9 9 10 10 11 12 12 12
8 8 8 7 7 7 6 6 5 5 5 5 5 6 6 6 6 6 6 6 6 7 7 8 8 8 9 9 9 10 10 10 9 9 9 9 9 9 9 10 11 12 13
Wind_Direction
99 106 105 103 106 112 125 128 131 132 137 142 143 138 140 138 136 131 129 129 129 132 132 130 126 121 117 115 116 114 111 109 110 109 108 105 103 104 104 104 105 106 102
98 103 101 102 108 115 124 130 130 130 135 138 141 139 140 141 140 136 134 133 133 134 132 129 127 123 119 117 116 115 113 109 108 109 108 105 103 105 106 106 107 105 102
95 104 101 99 108 119 126 129 131 132 134 139 141 143 144 143 140 139 137 136 135 134 130 129 131 126 124 121 118 117 116 114 111 110 109 107 106 108 110 109 110 106 104
94 102 99 98 109 116 120 120 129 134 138 139 142 149 149 146 141 139 140 138 135 136 136 133 135 129 126 124 122 121 118 116 114 115 113 111 112 113 112 114 114 111 106
94 98 95 100 112 117 122 131 132 136 137 139 142 147 147 146 144 143 140 138 134 134 136 138 135 131 128 127 127 125 122 121 121 122 117 115 118 120 119 118 118 115 113
89 93 97 107 117 124 129 134 135 139 136 138 139 145 145 143 140 141 141 140 138 138 138 135 137 131 131 130 130 130 129 128 127 129 125 123 125 127 126 123 121 119 117
84 90 94 106 116 124 127 131 134 140 140 140 138 135 141 141 144 141 144 143 144 145 141 136 134 134 132 132 134 136 138 138 136 136 138 137 135 139 136 133 129 126 122
85 88 89 102 113 122 124 128 135 144 145 142 141 137 138 139 142 144 142 150 150 149 148 143 137 139 138 130 135 146 150 158 156 157 162 159 150 149 153 150 146 137 131
81 85 86 97 105 119 127 131 133 140 147 146 147 145 148 146 140 142 146 149 153 153 152 150 147 148 142 132 129 147 164 168 166 173 175 179 178 177 176 170 164 158 151
73 76 86 94 98 108 121 127 129 133 149 149 148 148 147 148 150 150 154 155 160 163 163 162 161 159 153 154 142 157 173 179 181 176 179 186 186 188 184 180 178 173 169
67 70 79 90 97 101 109 119 125 131 138 146 153 150 146 146 150 157 161 164 167 170 174 179 186 188 179 175 164 168 178 181 182 176 177 178 181 190 189 190 192 191 199
63 67 77 86 94 100 106 114 119 128 136 141 149 158 160 155 155 160 169 174 175 177 185 196 195 191 185 188 184 191 182 185 196 181 188 196 205 211 212 212 219 220 229
61 65 73 84 87 94 101 105 112 123 131 141 148 153 158 162 167 169 174 174 174 175 187 195 196 200 205 213 221 213 217 207 207 196 205 215 221 230 227 234 237 241 246
62 64 68 74 77 83 93 102 112 118 124 136 140 143 155 164 176 184 189 189 190 186 185 191 203 214 219 228 239 229 235 224 218 217 226 228 233 238 236 241 247 253 256
61 63 67 69 70 74 84 89 101 112 116 124 136 139 148 161 172 185 186 194 202 203 204 213 222 227 226 230 238 245 238 221 220 228 235 236 240 248 249 248 251 253 257
57 58 62 68 71 73 77 82 92 102 105 111 120 126 131 142 147 165 185 194 201 205 212 215 223 227 237 236 244 244 241 231 230 237 248 246 245 249 250 252 256 260 261
54 55 56 61 66 70 72 75 82 94 99 103 110 121 120 114 116 131 163 182 194 205 215 221 232 244 243 244 248 251 249 250 250 254 256 252 249 249 250 255 260 263 263
51 53 54 57 62 65 68 72 76 86 87 86 89 97 114 107 108 111 131 155 188 205 218 233 244 250 252 250 249 255 260 261 261 263 264 261 257 258 257 257 258 260 260
47 49 51 55 57 61 64 67 70 74 73 67 72 82 97 94 101 110 119 141 170 200 218 238 245 253 253 247 251 262 274 274 268 267 269 270 265 266 262 258 258 259 262
43 46 48 53 55 57 57 59 61 65 63 58 59 70 91 95 95 108 93 60 241 233 234 237 247 251 250 249 254 260 273 275 270 265 268 269 267 269 266 260 260 262 264
34 41 44 48 50 52 53 55 55 57 55 57 63 67 69 71 61 57 34 9 331 299 260 254 255 252 252 250 255 259 270 274 267 268 272 271 266 264 265 263 259 260 263
16 30 35 40 40 40 44 46 47 47 46 50 51 45 50 51 45 40 32 19 1 347 319 283 274 267 264 261 260 266 274 277 271 269 272 270 267 266 264 263 260 259 263
344 4 18 25 29 28 28 29 33 35 32 29 26 26 19 17 18 15 4 353 343 341 333 321 288 280 280 276 276 274 272 273 277 273 271 269 265 264 262 261 262 264 267
311 320 339 348 357 2 6 11 13 15 16 16 11 5 359 353 344 330 334 328 319 320 318 315 309 291 286 285 285 284 280 280 279 275 271 269 264 262 263 262 262 263 266
296 294 302 312 321 326 330 337 344 347 350 352 350 346 340 332 322 316 317 312 304 304 307 305 299 296 288 286 289 291 292 288 284 279 274 271 270 269 265 264 264 265 266
289 285 284 293 298 301 302 303 306 313 321 324 326 328 325 321 314 310 311 308 305 302 304 304 297 293 290 283 285 290 291 291 286 280 277 271 271 273 272 272 272 271 270
Height
5878 5878 5878 5878 5878 5879 5879 5880 5881 5882 5883 5883 5885 5886 5887 5887 5888 5888 5889 5890 5891 5892 5892 5892 5893 5893 5894 5894 5894 5894 5894 5894 5895 5895 5895 5895 5895 5895 5895 5895 5895 5895 5895
5878 5878 5878 5878 5879 5879 5880 5881 5882 5883 5884 5884 5886 5887 5888 5888 5889 5889 5890 5891 5892 5893 5893 5893 5894 5894 5895 5895 5895 5895 5895 5895 5896 5896 5896 5895 5895 5896 5896 5896 5897 5897 5896
5879 5879 5879 5879 5880 5880 5881 5882 5883 5883 5884 5885 5887 5888 5888 5889 5890 5891 5891 5892 5893 5893 5894 5895 5895 5895 5896 5896 5896 5896 5896 5896 5897 5897 5897 5897 5896 5897 5897 5897 5898 5898 5898
5879 5880 5880 5880 5881 5882 5882 5883 5884 5885 5886 5887 5888 5889 5890 5890 5891 5892 5893 5893 5894 5894 5895 5896 5896 5896 5897 5897 5897 5897 5897 5897 5898 5898 5898 5898 5898 5898 5898 5899 5899 5899 5899
5880 5880 5881 5881 5881 5882 5883 5884 5885 5886 5887 5888 5889 5890 5890 5891 5892 5893 5893 5894 5895 5895 5896 5896 5897 5897 5897 5898 5898 5898 5898 5898 5898 5898 5899 5898 5898 5899 5899 5900 5900 5900 5900
5881 5881 5881 5882 5882 5883 5884 5884 5885 5886 5887 5888 5889 5890 5891 5892 5893 5894 5894 5895 5896 5896 5897 5897 5897 5898 5898 5898 5898 5899 5899 5898 5899 5899 5899 5899 5899 5900 5900 5900 5901 5901 5901
5882 5882 5882 5882 5883 5883 5884 5885 5886 5887 5888 5889 5890 5891 5892 5892 5893 5894 5895 5896 5896 5897 5898 5898 5898 5898 5899 5899 5899 5899 5899 5899 5899 5899 5900 5900 5900 5900 5901 5901 5901 5901 5901
5883 5883 5883 5883 5883 5884 5885 5885 5886 5887 5888 5889 5891 5891 5892 5893 5894 5895 5896 5896 5897 5898 5898 5898 5899 5899 5899 5899 5899 5899 5899 5899 5899 5900 5900 5900 5900 5901 5901 5901 5901 5901 5902
5885 5884 5884 5884 5884 5884 5885 5886 5887 5888 5889 5890 5891 5892 5893 5894 5894 5895 5896 5897 5897 5898 5898 5899 5899 5899 5899 5899 5899 5899 5899 5899 5899 5900 5900 5900 5901 5901 5901 5901 5901 5902 5901
5886 5886 5885 5885 5885 5885 5886 5887 5888 5889 5889 5890 5891 5892 5893 5894 5895 5896 5896 5897 5898 5898 5899 5899 5900 5900 5900 5900 5899 5899 5899 5899 5899 5900 5900 5900 5900 5901 5901 5901 5901 5901 5901
5888 5887 5886 5886 5886 5887 5887 5888 5889 5889 5890 5891 5892 5893 5893 5894 5895 5896 5897 5897 5898 5898 5899 5899 5899 5900 5900 5900 5900 5900 5899 5900 5899 5899 5900 5900 5900 5901 5901 5901 5901 5901 5901
5889 5888 5888 5888 5888 5888 5888 5889 5890 5890 5891 5892 5892 5893 5894 5895 5895 5896 5897 5897 5898 5898 5899 5899 5899 5899 5900 5900 5899 5899 5899 5899 5899 5899 5900 5900 5900 5901 5901 5901 5901 5901 5900
5891 5890 5889 5889 5889 5889 5890 5890 5891 5891 5891 5892 5893 5893 5894 5895 5896 5896 5897 5897 5898 5898 5898 5899 5899 5899 5899 5899 5899 5898 5899 5899 5899 5900 5900 5900 5900 5900 5900 5900 5900 5900 5900
5894 5893 5892 5891 5891 5891 5891 5891 5891 5892 5892 5893 5893 5894 5894 5895 5895 5896 5897 5897 5897 5898 5898 5898 5898 5899 5899 5899 5898 5898 5899 5899 5899 5899 5899 5900 5899 5899 5899 5899 5899 5899 5899
5896 5895 5894 5893 5893 5892 5892 5892 5892 5893 5893 5893 5894 5894 5894 5895 5895 5895 5896 5897 5897 5897 5897 5898 5898 5898 5898 5898 5898 5898 5898 5898 5898 5899 5899 5899 5899 5898 5898 5898 5898 5897 5897
5898 5897 5896 5895 5895 5894 5894 5893 5893 5894 5894 5894 5894 5894 5895 5895 5895 5896 5896 5896 5896 5897 5897 5897 5897 5897 5897 5897 5898 5898 5898 5898 5898 5898 5898 5898 5897 5897 5897 5897 5896 5896 5896
5900 5899 5898 5896 5896 5895 5895 5894 5894 5894 5895 5895 5895 5895 5895 5895 5895 5895 5895 5895 5895 5896 5896 5896 5896 5896 5897 5897 5897 5897 5897 5897 5897 5897 5897 5896 5896 5896 5895 5895 5895 5894 5894
5902 5900 5899 5898 5898 5897 5896 5896 5895 5895 5895 5895 5895 5895 5895 5895 5895 5895 5895 5895 5894 5894 5895 5895 5895 5895 5896 5896 5896 5896 5896 5896 5896 5896 5896 5895 5895 5894 5894 5893 5893 5893 5892
5903 5902 5901 5900 5899 5898 5898 5897 5896 5896 5896 5896 5895 5895 5895 5895 5895 5895 5895 5894 5894 5894 5894 5894 5894 5895 5895 5895 5895 5895 5895 5895 5895 5895 5894 5893 5893 5893 5892 5892 5891 5891 5891
5904 5903 5902 5901 5901 5900 5899 5898 5898 5897 5897 5897 5896 5896 5895 5895 5894 5894 5895 5894 5894 5893 5893 5893 5893 5893 5893 5894 5894 5894 5894 5894 5893 5893 5892 5892 5891 5891 5890 5890 5889 5889 5889
5905 5904 5904 5903 5902 5901 5901 5900 5899 5899 5898 5897 5897 5896 5895 5895 5895 5895 5894 5894 5893 5893 5892 5892 5892 5892 5892 5892 5892 5892 5892 5892 5892 5891 5890 5890 5889 5889 5888 5888 5888 5887 5887
5906 5905 5904 5903 5903 5902 5902 5901 5900 5899 5899 5898 5897 5897 5896 5895 5895 5894 5894 5893 5893 5892 5892 5891 5891 5891 5891 5890 5891 5891 5891 5891 5890 5889 5888 5888 5887 5886 5886 5885 5885 5885 5885
5905 5905 5904 5903 5903 5902 5902 5901 5900 5900 5899 5898 5897 5897 5896 5895 5894 5894 5893 5893 5892 5892 5891 5890 5890 5889 5889 5889 5889 5889 5888 5888 5888 5887 5886 5886 5885 5884 5883 5883 5883 5883 5882
5904 5903 5903 5903 5902 5902 5901 5901 5900 5899 5899 5898 5897 5896 5895 5894 5894 5893 5892 5892 5891 5890 5890 5889 5888 5888 5888 5887 5887 5886 5886 5885 5885 5885 5885 5884 5883 5882 5881 5881 5881 5880 5879
5903 5902 5902 5902 5901 5901 5900 5900 5899 5898 5898 5897 5896 5895 5894 5893 5892 5892 5891 5890 5889 5888 5888 5887 5887 5886 5886 5886 5885 5884 5883 5883 5882 5882 5882 5881 5881 5880 5879 5878 5878 5877 5876
5901 5900 5900 5900 5900 5899 5899 5898 5897 5896 5896 5895 5895 5894 5893 5892 5891 5890 5889 5888 5887 5886 5886 5885 5884 5884 5884 5883 5883 5882 5881 5880 5879 5879 5879 5878 5878 5877 5876 5876 5875 5874 5873